When you browse on this site, cookies collect data to enhance your experience and personalize the content and advertising you see.
Visit our Privacy Policy to learn more. By continuing to use the site, you agree to this use of cookies and data.
  • In United Kingdom
  • List of Countries
  • For 7 days
  • Water Temperature
  • Weather Map
  • Weather Widgets
  • user-avatar
    Login

    Hourly Weather La Ceiba

    Today, 26 August, Monday

    Time Temperature Precipitation Wind Pressure Humidity
    00:00 +26°C° 0 mm 3 mps 758 mmHg 96%
    01:00 +26°C° 0 mm 2 mps 758 mmHg 96%
    02:00 +26°C° 0 mm 2 mps 758 mmHg 96%
    03:00 +25°C° 0 mm 1 mps 757 mmHg 96%
    04:00 +25°C° 0 mm 1 mps 758 mmHg 96%
    05:00 +25°C° 0 mm 1 mps 758 mmHg 95%
    06:00 +25°C° 0 mm 1 mps 758 mmHg 95%
    07:00 +28°C° 0 mm 1 mps 758 mmHg 83%
    08:00 +31°C° 0 mm 1 mps 758 mmHg 72%
    09:00 +34°C° 0 mm 1 mps 758 mmHg 60%
    10:00 +36°C° 0 mm 2 mps 758 mmHg 53%
    11:00 +38°C° 0 mm 2 mps 758 mmHg 46%
    12:00 +39°C° 0 mm 2 mps 757 mmHg 40%
    13:00 +39°C° 0 mm 3 mps 757 mmHg 43%
    14:00 +38°C° 0 mm 3 mps 756 mmHg 45%
    15:00 +38°C° 0 mm 4 mps 756 mmHg 48%
    16:00 +35°C° 0.2 mm 4 mps 756 mmHg 62%
    17:00 +32°C° 0.2 mm 5 mps 756 mmHg 76%
    18:00 +29°C° 0.2 mm 5 mps 757 mmHg 89%
    19:00 +28°C° 0.2 mm 5 mps 757 mmHg 90%
    20:00 +28°C° 0.2 mm 4 mps 758 mmHg 91%
    21:00 +27°C° 0.2 mm 4 mps 759 mmHg 92%
    22:00 +27°C° 0 mm 3 mps 758 mmHg 92%
    23:00 +26°C° 0 mm 3 mps 758 mmHg 93%

    Tomorrow, 27 August, Tuesday

    Time Temperature Precipitation Wind Pressure Humidity
    00:00 +26°C° 0 mm 3 mps 758 mmHg 93%
    01:00 +26°C° 0 mm 2 mps 758 mmHg 93%
    02:00 +25°C° 0 mm 2 mps 758 mmHg 93%
    03:00 +25°C° 0 mm 2 mps 758 mmHg 93%
    04:00 +25°C° 0 mm 2 mps 758 mmHg 93%
    05:00 +25°C° 0 mm 2 mps 758 mmHg 93%
    06:00 +24°C° 0 mm 2 mps 758 mmHg 93%
    07:00 +27°C° 0 mm 2 mps 758 mmHg 81%
    08:00 +30°C° 0 mm 2 mps 758 mmHg 69%
    09:00 +34°C° 0 mm 2 mps 759 mmHg 56%
    10:00 +36°C° 0 mm 2 mps 758 mmHg 53%
    11:00 +37°C° 0 mm 3 mps 758 mmHg 49%
    12:00 +38°C° 0 mm 4 mps 758 mmHg 46%
    13:00 +39°C° 0.1 mm 5 mps 757 mmHg 47%
    14:00 +37°C° 0.1 mm 5 mps 757 mmHg 49%
    15:00 +38°C° 0.1 mm 6 mps 756 mmHg 51%
    16:00 +35°C° 0.2 mm 6 mps 757 mmHg 63%
    17:00 +33°C° 0.2 mm 6 mps 757 mmHg 76%
    18:00 +29°C° 0.2 mm 6 mps 757 mmHg 89%
    19:00 +29°C° 0.1 mm 5 mps 758 mmHg 90%
    20:00 +28°C° 0.1 mm 5 mps 758 mmHg 92%
    21:00 +27°C° 0.1 mm 5 mps 759 mmHg 93%
    22:00 +27°C° 0 mm 4 mps 759 mmHg 93%
    23:00 +26°C° 0 mm 4 mps 759 mmHg 94%

    Day after tomorrow, 28 August, Wednesday

    Time Temperature Precipitation Wind Pressure Humidity
    00:00 +26°C° 0 mm 3 mps 759 mmHg 94%
    01:00 +26°C° 0 mm 3 mps 759 mmHg 94%
    02:00 +25°C° 0 mm 3 mps 759 mmHg 94%
    03:00 +25°C° 0 mm 3 mps 758 mmHg 94%
    04:00 +25°C° 0 mm 3 mps 759 mmHg 94%
    05:00 +25°C° 0 mm 3 mps 759 mmHg 94%
    06:00 +24°C° 0 mm 3 mps 759 mmHg 94%
    07:00 +27°C° 0 mm 2 mps 759 mmHg 81%
    08:00 +30°C° 0 mm 2 mps 760 mmHg 68%
    09:00 +34°C° 0 mm 2 mps 760 mmHg 55%
    10:00 +36°C° 0 mm 3 mps 760 mmHg 50%
    11:00 +37°C° 0 mm 4 mps 759 mmHg 45%
    12:00 +38°C° 0 mm 4 mps 759 mmHg 40%
    13:00 +37°C° 0.1 mm 5 mps 759 mmHg 44%
    14:00 +36°C° 0.1 mm 5 mps 758 mmHg 49%
    15:00 +36°C° 0.1 mm 6 mps 758 mmHg 53%
    16:00 +34°C° 0.3 mm 5 mps 758 mmHg 64%
    17:00 +32°C° 0.3 mm 5 mps 758 mmHg 75%
    18:00 +29°C° 0.3 mm 5 mps 758 mmHg 85%
    19:00 +28°C° 0.1 mm 5 mps 759 mmHg 88%
    20:00 +27°C° 0.1 mm 4 mps 759 mmHg 90%
    21:00 +26°C° 0.1 mm 4 mps 760 mmHg 93%
    22:00 +26°C° 0 mm 4 mps 760 mmHg 94%
    23:00 +25°C° 0 mm 4 mps 760 mmHg 95%

    29 August, Thursday

    Time Temperature Precipitation Wind Pressure Humidity
    00:00 +25°C° 0 mm 3 mps 760 mmHg 96%
    01:00 +25°C° 0 mm 3 mps 760 mmHg 96%
    02:00 +25°C° 0 mm 3 mps 759 mmHg 96%
    03:00 +24°C° 0 mm 2 mps 759 mmHg 97%
    04:00 +24°C° 0 mm 2 mps 759 mmHg 96%
    05:00 +24°C° 0 mm 2 mps 759 mmHg 95%
    06:00 +24°C° 0 mm 2 mps 759 mmHg 95%
    07:00 +27°C° 0 mm 2 mps 759 mmHg 81%
    08:00 +31°C° 0 mm 1 mps 760 mmHg 68%
    09:00 +34°C° 0 mm 1 mps 760 mmHg 54%
    10:00 +36°C° 0 mm 2 mps 759 mmHg 50%
    11:00 +36°C° 0 mm 2 mps 759 mmHg 46%
    12:00 +37°C° 0 mm 3 mps 759 mmHg 43%
    13:00 +37°C° 0 mm 3 mps 758 mmHg 48%
    14:00 +36°C° 0 mm 3 mps 758 mmHg 54%
    15:00 +35°C° 0 mm 3 mps 757 mmHg 59%
    16:00 +33°C° 0.2 mm 3 mps 758 mmHg 70%
    17:00 +30°C° 0.2 mm 3 mps 758 mmHg 81%
    18:00 +28°C° 0.2 mm 3 mps 758 mmHg 92%
    19:00 +27°C° 0.2 mm 2 mps 759 mmHg 93%
    20:00 +27°C° 0.2 mm 2 mps 760 mmHg 95%
    21:00 +26°C° 0.2 mm 2 mps 760 mmHg 97%
    22:00 +26°C° 0 mm 2 mps 760 mmHg 97%
    23:00 +25°C° 0 mm 2 mps 760 mmHg 97%

    30 August, Friday

    Time Temperature Precipitation Wind Pressure Humidity
    00:00 +25°C° 0 mm 2 mps 759 mmHg 97%
    01:00 +25°C° 0 mm 2 mps 759 mmHg 97%
    02:00 +25°C° 0 mm 2 mps 758 mmHg 97%
    03:00 +24°C° 0 mm 2 mps 758 mmHg 96%
    04:00 +24°C° 0 mm 2 mps 758 mmHg 95%
    05:00 +24°C° 0 mm 2 mps 759 mmHg 93%
    06:00 +24°C° 0 mm 2 mps 759 mmHg 92%
    07:00 +27°C° 0 mm 2 mps 759 mmHg 80%
    08:00 +30°C° 0 mm 2 mps 759 mmHg 67%
    09:00 +34°C° 0 mm 2 mps 759 mmHg 55%
    10:00 +35°C° 0 mm 2 mps 759 mmHg 54%
    11:00 +36°C° 0 mm 3 mps 759 mmHg 52%
    12:00 +36°C° 0 mm 3 mps 758 mmHg 51%
    13:00 +35°C° 0.1 mm 2 mps 758 mmHg 57%
    14:00 +34°C° 0.1 mm 2 mps 757 mmHg 64%
    15:00 +32°C° 0.1 mm 2 mps 756 mmHg 71%
    16:00 +31°C° 0.1 mm 1 mps 757 mmHg 78%
    17:00 +29°C° 0.1 mm 1 mps 757 mmHg 85%
    18:00 +28°C° 0.1 mm 1 mps 758 mmHg 92%
    19:00 +27°C° 0.1 mm 1 mps 758 mmHg 93%
    20:00 +27°C° 0.1 mm 1 mps 759 mmHg 94%
    21:00 +26°C° 0.1 mm 2 mps 760 mmHg 95%
    22:00 +26°C° 0 mm 2 mps 759 mmHg 95%
    23:00 +26°C° 0 mm 2 mps 759 mmHg 95%

    31 August, Saturday

    Time Temperature Precipitation Wind Pressure Humidity
    00:00 +25°C° 0 mm 2 mps 759 mmHg 94%
    01:00 +25°C° 0 mm 2 mps 759 mmHg 94%
    02:00 +25°C° 0 mm 2 mps 758 mmHg 94%
    03:00 +25°C° 0 mm 2 mps 758 mmHg 94%
    04:00 +25°C° 0 mm 2 mps 758 mmHg 93%
    05:00 +25°C° 0 mm 2 mps 759 mmHg 93%
    06:00 +25°C° 0 mm 1 mps 759 mmHg 92%
    07:00 +28°C° 0 mm 2 mps 759 mmHg 81%
    08:00 +30°C° 0 mm 2 mps 759 mmHg 71%
    09:00 +34°C° 0 mm 3 mps 759 mmHg 60%
    10:00 +35°C° 0 mm 2 mps 759 mmHg 59%
    11:00 +35°C° 0 mm 2 mps 759 mmHg 58%
    12:00 +36°C° 0 mm 2 mps 758 mmHg 56%
    13:00 +35°C° 0.2 mm 2 mps 758 mmHg 61%
    14:00 +34°C° 0.2 mm 2 mps 757 mmHg 66%
    15:00 +34°C° 0.2 mm 2 mps 756 mmHg 71%
    16:00 +31°C° 0.4 mm 2 mps 757 mmHg 77%
    17:00 +30°C° 0.4 mm 2 mps 757 mmHg 83%
    18:00 +28°C° 0.4 mm 2 mps 757 mmHg 89%
    19:00 +27°C° 0 mm 2 mps 758 mmHg 91%
    20:00 +27°C° 0 mm 2 mps 758 mmHg 93%
    21:00 +26°C° 0 mm 3 mps 759 mmHg 95%
    22:00 +26°C° 0 mm 2 mps 759 mmHg 95%
    23:00 +26°C° 0 mm 2 mps 759 mmHg 94%
    Show more